Temperature
12 10 9 10 10 11 11 11 10 10 9 9 8 7 7 7 6 5 5 4 4 3 3 2 2 3 3 3 4 4 4 4 5 5 5 5 5 5 5 6 6 6 6 6
11 9 9 10 10 10 10 10 9 9 9 8 7 7 7 6 5 5 4 4 3 2 2 2 2 2 2 2 3 3 3 3 3 3 4 4 4 4 5 5 5 5 5 5
9 9 10 10 9 9 9 9 8 8 8 8 7 6 6 6 5 4 4 3 2 2 1 1 1 1 1 2 2 2 2 2 3 3 3 3 3 4 4 4 4 4 5 5
9 9 9 9 8 8 8 8 8 7 6 6 7 5 6 6 4 4 3 2 2 1 1 1 0 0 1 1 1 1 2 2 2 2 2 2 2 3 3 3 3 3 4 4
8 8 8 8 7 7 7 7 7 7 6 6 7 6 5 5 4 3 2 2 1 1 0 0 -0 -0 -0 0 0 1 1 1 1 1 1 2 2 2 2 2 2 3 3 3
7 7 7 7 7 7 7 7 7 7 6 5 7 6 5 4 4 3 2 2 1 1 0 -0 -1 -1 -1 -0 -0 0 0 0 0 0 1 1 1 1 1 2 2 2 2 3
7 7 7 7 6 7 7 6 5 5 5 5 7 6 4 4 3 3 2 1 1 0 -0 -1 -1 -1 -1 -1 -1 -1 -1 -1 -0 -0 -0 0 0 0 1 1 1 1 1 2
7 6 6 6 6 5 6 6 5 5 5 6 6 5 3 3 3 2 2 1 1 0 -0 -1 -1 -2 -2 -2 -2 -2 -1 -1 -1 -1 -1 -1 -0 -0 -0 -0 -0 0 1 1
6 6 6 6 6 5 6 5 5 4 4 4 5 4 2 2 2 2 1 1 0 -0 -1 -1 -2 -2 -2 -2 -2 -2 -2 -2 -2 -1 -1 -1 -1 -1 -1 -1 -1 -0 -0 0
6 5 5 5 5 5 5 5 4 3 3 4 5 5 3 1 1 1 0 0 -0 -1 -1 -1 -2 -2 -2 -3 -3 -2 -2 -2 -2 -2 -2 -2 -2 -2 -2 -1 -1 -1 -1 -0
5 4 4 4 4 4 4 4 4 4 4 3 3 3 2 2 1 0 0 0 -0 -1 -1 -2 -2 -3 -3 -3 -3 -3 -3 -3 -2 -2 -2 -2 -2 -2 -2 -2 -2 -2 -1 -1
4 3 3 4 4 4 4 4 3 2 2 3 2 2 2 1 1 1 0 -0 -1 -1 -2 -2 -3 -3 -3 -3 -3 -3 -3 -3 -3 -3 -3 -3 -3 -3 -3 -2 -2 -2 -2 -2
4 3 2 3 3 2 2 3 3 2 1 1 1 1 1 1 0 0 -0 -1 -1 -2 -2 -3 -3 -3 -4 -4 -4 -4 -4 -4 -4 -4 -4 -3 -3 -3 -3 -3 -3 -3 -2 -2
3 2 2 3 3 2 2 2 2 1 -0 0 1 1 0 -0 -0 -1 -1 -1 -2 -2 -3 -3 -4 -4 -4 -4 -4 -4 -4 -4 -4 -4 -4 -4 -4 -4 -4 -4 -3 -3 -3 -3
2 1 2 2 2 2 2 2 1 0 0 -0 0 0 -0 -1 -1 -1 -1 -2 -2 -3 -3 -4 -4 -5 -5 -5 -5 -5 -5 -5 -5 -5 -4 -4 -4 -4 -4 -4 -4 -4 -3 -3
1 1 1 1 1 1 1 1 1 1 0 -0 -0 -1 -1 -1 -1 -1 -2 -2 -3 -3 -4 -4 -5 -5 -5 -5 -5 -5 -5 -5 -5 -5 -5 -5 -5 -5 -5 -5 -4 -4 -4 -4
1 -0 -0 0 1 0 -0 0 0 0 -0 -1 -1 -1 -1 -2 -2 -2 -3 -3 -4 -4 -5 -5 -5 -6 -6 -6 -6 -6 -6 -6 -6 -6 -6 -6 -6 -5 -5 -5 -5 -5 -4 -4
-0 -0 -1 -1 -0 -1 0 -0 -0 -1 -1 -2 -2 -2 -2 -2 -3 -3 -3 -4 -4 -5 -5 -6 -6 -6 -6 -6 -6 -6 -6 -6 -6 -6 -6 -6 -6 -6 -6 -6 -5 -5 -5 -5
-1 -1 -1 -1 -1 -0 -0 -1 -2 -2 -3 -2 -2 -2 -2 -3 -3 -3 -4 -5 -5 -5 -6 -6 -6 -6 -6 -6 -7 -7 -7 -7 -7 -7 -7 -7 -7 -7 -6 -6 -6 -6 -6 -6
-2 -2 -2 -1 -1 -1 -1 -2 -2 -2 -3 -3 -3 -3 -4 -4 -5 -5 -5 -6 -6 -6 -6 -7 -7 -7 -7 -7 -7 -7 -7 -7 -7 -7 -7 -7 -7 -7 -7 -7 -7 -6 -7 -6
-3 -3 -3 -2 -2 -1 -2 -3 -2 -3 -3 -3 -3 -4 -4 -5 -6 -6 -6 -6 -7 -7 -7 -7 -7 -7 -7 -7 -7 -7 -8 -8 -8 -8 -8 -8 -8 -8 -8 -7 -7 -7 -7 -7
-3 -3 -3 -3 -2 -2 -4 -4 -4 -4 -4 -4 -4 -5 -5 -6 -6 -6 -7 -7 -7 -8 -8 -8 -8 -8 -8 -8 -8 -8 -8 -8 -8 -8 -8 -8 -8 -8 -8 -8 -8 -8 -8 -8
-3 -3 -3 -3 -3 -3 -4 -4 -4 -4 -5 -5 -5 -6 -6 -7 -7 -7 -8 -8 -8 -8 -8 -8 -8 -8 -8 -8 -9 -9 -9 -9 -9 -9 -9 -8 -8 -8 -9 -9 -8 -8 -8 -8
-3 -3 -3 -4 -4 -4 -4 -4 -4 -5 -5 -6 -6 -7 -7 -7 -8 -8 -8 -8 -9 -9 -9 -9 -9 -9 -9 -9 -9 -9 -9 -9 -9 -9 -9 -9 -9 -9 -9 -9 -9 -9 -9 -9
-3 -5 -5 -5 -5 -5 -5 -5 -5 -6 -6 -7 -7 -7 -8 -8 -8 -9 -9 -9 -9 -9 -9 -9 -10 -10 -9 -9 -9 -9 -10 -10 -10 -10 -10 -9 -10 -10 -9 -9 -9 -9 -9 -9
-5 -6 -6 -5 -5 -6 -6 -6 -6 -6 -7 -7 -8 -8 -8 -8 -9 -9 -9 -9 -10 -10 -10 -10 -10 -10 -10 -10 -10 -10 -10 -10 -10 -10 -10 -10 -10 -10 -10 -10 -10 -9 -9 -9
Wind_Speed
1 1 2 4 3 5 6 5 6 4 2 2 4 5 4 2 2 2 2 2 3 3 4 5 5 6 7 8 8 7 7 7 7 5 4 4 4 4 4 6 8 8 7 6
1 2 3 4 3 5 5 6 6 3 1 3 5 6 4 2 3 3 3 2 3 4 5 6 6 6 6 6 7 7 7 7 6 5 3 3 3 3 3 6 6 7 7 7
3 3 3 3 3 5 4 3 5 5 5 5 5 6 5 5 5 4 3 3 3 3 5 5 6 5 5 6 6 7 7 7 6 7 4 4 3 3 3 4 4 6 7 7
2 2 3 2 3 5 3 3 5 5 5 4 3 5 3 5 5 4 3 2 2 3 4 4 5 6 5 5 5 6 7 7 7 7 5 5 4 4 4 4 4 6 6 6
2 3 4 3 3 5 3 5 7 7 7 6 6 5 3 4 4 3 3 2 2 2 3 3 4 4 5 5 5 5 6 7 7 7 6 5 4 4 4 5 5 4 5 6
1 1 2 3 3 3 4 5 7 6 4 6 7 6 3 3 3 4 3 2 2 2 2 2 3 4 4 5 5 5 6 6 6 6 6 5 6 6 6 6 5 5 4 4
2 3 2 2 3 1 3 3 3 2 3 5 2 3 2 3 4 5 4 3 2 1 2 3 4 4 5 6 6 6 6 6 7 7 7 6 5 5 5 6 5 5 4 4
2 2 2 1 2 3 4 2 1 3 4 4 3 3 2 6 6 6 5 3 2 1 2 3 3 3 4 5 6 6 6 6 7 7 7 6 6 4 4 5 5 5 5 5
3 2 2 1 2 3 3 1 1 2 5 5 5 2 3 4 4 3 3 2 2 2 3 3 3 3 4 5 5 6 6 7 7 7 7 6 6 6 6 6 5 4 5 6
4 3 2 1 1 2 3 3 1 2 3 5 5 3 1 2 1 1 2 2 3 3 4 3 3 3 4 4 4 5 6 6 6 6 6 7 6 6 6 6 6 5 6 7
3 2 2 2 4 3 3 2 3 3 3 3 5 3 2 3 3 2 2 3 3 4 4 3 3 3 3 4 4 5 6 7 6 6 7 7 7 6 7 6 6 6 6 7
1 2 4 3 1 2 1 2 2 3 5 4 5 4 3 5 3 1 2 3 3 3 3 3 4 4 4 4 5 5 6 6 7 7 7 8 7 7 7 7 7 7 7 7
1 1 3 2 1 0 2 3 3 3 3 4 5 5 2 2 2 2 2 3 4 4 4 4 4 4 4 5 5 5 5 6 6 7 7 7 7 7 7 8 8 8 8 8
1 3 6 7 4 2 4 5 5 4 4 6 7 7 3 3 3 3 3 4 4 4 4 4 4 4 4 5 5 6 6 6 7 7 7 8 7 7 8 8 8 8 8 8
1 4 6 9 8 7 8 9 8 9 9 8 8 7 6 3 3 3 4 5 5 5 5 5 5 5 5 5 6 5 6 6 7 7 7 7 7 7 8 8 8 8 8 9
2 4 4 7 8 7 10 11 10 10 9 10 10 9 4 2 2 3 5 5 6 6 6 6 6 6 6 6 6 6 6 6 6 7 8 8 8 8 8 8 8 8 8 8
3 3 2 5 3 5 8 8 8 5 4 5 8 6 2 4 5 5 6 5 5 6 7 7 7 6 6 6 7 6 6 6 6 7 7 8 8 8 8 9 9 9 8 8
3 3 3 4 4 7 5 2 2 3 4 4 4 3 2 4 5 5 3 3 5 6 6 7 7 7 6 6 6 6 6 6 7 7 7 7 7 8 8 8 8 8 8 8
1 3 3 3 5 8 2 1 2 1 5 2 3 4 4 4 5 2 4 5 5 5 6 5 6 6 7 6 5 6 7 6 6 7 8 8 8 8 8 8 8 8 8 8
1 1 3 4 4 6 2 3 2 2 4 1 1 3 3 4 4 3 5 6 6 6 6 6 6 6 7 6 5 6 7 7 7 8 8 8 8 8 8 8 8 7 7 8
3 4 6 6 6 6 1 2 2 2 4 2 1 2 2 2 3 4 5 6 5 6 6 6 6 6 6 6 6 6 7 7 7 8 8 8 7 8 8 7 7 7 7 7
6 5 5 4 6 6 2 3 3 3 1 2 2 2 2 4 4 5 5 6 7 7 7 7 6 7 7 6 6 7 8 7 7 7 8 8 7 7 7 7 6 6 6 7
6 6 4 5 5 1 3 3 1 1 1 2 3 3 3 4 5 5 5 5 6 7 6 6 6 7 7 6 6 8 8 7 7 8 8 8 8 7 7 6 6 5 5 5
3 1 2 3 3 1 2 1 1 1 1 2 3 3 3 4 5 5 5 6 6 7 7 6 7 8 8 7 7 7 8 7 7 8 8 8 7 7 6 6 5 5 5 5
3 3 3 4 3 2 1 0 1 2 2 2 3 3 3 3 4 4 5 5 5 6 6 6 7 7 8 8 8 8 7 7 7 7 7 7 7 7 6 6 5 6 4 5
2 4 4 4 2 2 1 1 1 1 2 2 2 3 3 3 4 4 4 4 5 6 6 7 7 8 8 8 8 8 7 7 7 8 8 7 6 6 6 6 7 9 9 11
Wind_Direction
119 45 36 20 360 324 318 308 305 320 24 337 252 245 235 227 179 141 112 84 58 45 47 38 34 29 25 19 15 13 10 5 6 8 6 355 351 344 350 357 1 358 350 346
119 55 10 354 355 324 312 304 307 324 2 298 266 259 229 182 146 130 116 91 59 37 25 28 29 27 25 17 9 8 8 3 3 354 349 337 329 326 343 353 351 352 347 342
66 45 356 340 347 328 303 306 314 312 314 263 271 270 200 161 135 117 96 76 65 39 24 18 17 17 18 13 7 0 359 360 357 352 352 350 344 347 351 346 340 344 342 339
68 23 346 348 356 333 303 351 319 297 297 273 229 276 219 165 147 139 124 91 58 40 27 18 14 8 9 7 3 359 357 358 358 355 353 352 348 338 328 326 321 329 336 338
55 20 353 353 347 330 316 322 293 277 272 280 247 250 250 159 173 165 149 123 76 45 28 15 11 2 4 2 359 355 356 357 355 354 350 347 340 329 323 323 321 322 330 335
129 69 16 354 327 304 304 292 270 252 260 263 231 219 246 188 179 148 145 129 97 55 22 6 3 5 4 2 358 356 355 352 351 350 348 345 340 335 332 330 326 323 317 323
184 150 114 340 318 293 311 329 332 299 229 245 216 220 231 87 88 116 128 123 107 52 10 359 2 2 360 359 357 352 351 349 347 346 346 340 336 330 324 322 319 318 315 310
285 246 124 53 7 319 293 304 263 273 280 305 305 240 151 91 78 81 87 89 73 23 4 357 357 359 355 353 352 352 349 345 343 342 339 335 332 324 316 316 314 309 304 301
322 276 102 67 347 320 308 269 306 290 290 278 253 185 115 95 89 84 79 57 19 1 358 349 353 357 354 348 346 347 344 337 338 338 333 328 329 327 319 314 311 307 309 309
329 289 232 154 232 241 296 325 308 247 279 281 276 264 196 162 172 52 23 5 360 349 340 347 349 348 346 340 338 341 336 333 329 331 328 326 324 321 318 314 313 310 311 310
311 275 250 221 214 222 195 234 246 260 260 267 288 285 63 108 104 56 3 352 340 338 338 340 338 336 338 340 340 336 333 334 329 327 324 321 318 318 318 312 311 313 312 307
341 295 262 243 104 39 320 251 222 232 265 255 271 277 65 81 78 56 2 350 344 335 336 339 334 334 339 337 334 331 329 328 326 323 319 315 316 320 319 315 314 314 309 307
19 255 292 278 165 108 256 244 251 267 284 256 257 263 98 46 25 13 1 350 342 339 339 342 341 336 335 334 330 324 323 323 322 322 318 317 321 322 319 316 315 314 310 307
306 237 226 247 280 284 263 251 235 226 239 260 254 275 286 315 340 346 345 337 328 329 331 338 337 335 334 329 324 320 319 321 322 322 320 318 318 317 316 315 315 313 310 305
228 254 255 268 280 277 268 262 242 233 238 251 275 290 297 316 323 328 332 332 331 331 335 338 337 333 328 324 322 320 318 321 321 319 317 316 316 317 318 317 315 315 312 308
215 264 291 278 263 265 270 260 247 245 246 256 276 282 294 324 344 340 333 332 329 331 336 337 333 331 329 327 323 319 317 318 317 314 314 317 318 319 321 320 318 317 312 309
205 220 266 273 291 307 269 246 222 227 228 231 252 263 338 339 332 324 319 325 330 332 335 332 327 323 323 324 324 313 310 313 312 310 314 317 317 319 321 322 323 320 317 315
206 219 240 280 312 255 246 53 125 213 251 241 257 283 317 316 317 309 322 352 338 334 331 329 328 328 324 322 322 319 313 311 309 311 316 318 318 318 319 319 319 320 320 317
214 196 234 249 267 270 242 133 112 197 276 262 261 299 323 346 330 321 28 14 344 334 330 329 327 323 322 322 323 321 316 313 312 316 317 319 318 316 315 315 317 319 319 318
145 180 218 234 255 261 246 99 80 81 272 347 22 319 333 350 312 294 354 352 341 337 336 334 330 329 328 327 331 323 317 318 316 317 316 317 316 314 312 312 314 316 316 315
178 200 217 232 246 262 179 148 118 208 259 9 7 331 330 290 269 302 333 336 336 331 331 332 329 328 328 331 331 320 317 316 316 318 316 315 315 313 309 310 312 316 318 318
187 196 207 208 229 248 133 137 185 229 9 5 352 354 327 306 313 325 331 329 330 329 331 334 331 328 330 334 336 325 320 319 321 320 318 316 315 316 317 315 317 319 320 320
201 201 203 206 221 195 145 158 164 46 347 343 341 339 331 314 312 319 322 324 326 329 331 333 330 327 330 335 336 324 320 324 326 323 321 318 317 317 318 316 318 319 320 322
214 194 229 259 257 229 171 176 15 25 5 351 350 340 330 310 312 318 322 325 327 329 331 333 333 331 332 335 334 326 325 327 324 321 321 323 325 322 322 322 322 321 320 319
218 179 225 253 275 309 239 285 353 6 4 351 342 334 322 316 314 316 318 319 323 327 330 330 330 328 327 331 330 328 330 330 324 319 320 325 326 323 324 324 322 320 313 312
182 185 201 232 223 208 247 292 344 330 318 321 327 327 332 321 309 314 315 319 321 322 325 326 327 326 325 327 327 329 331 330 326 325 326 326 323 323 325 325 326 331 330 328
Height
1520 1523 1526 1525 1524 1524 1522 1522 1523 1524 1524 1526 1527 1527 1528 1528 1529 1529 1531 1532 1532 1533 1533 1531 1530 1529 1528 1527 1526 1524 1523 1522 1521 1520 1520 1520 1519 1519 1519 1519 1519 1519 1519 1519
1522 1527 1527 1525 1524 1524 1524 1525 1525 1525 1525 1526 1526 1525 1525 1526 1527 1528 1530 1531 1532 1532 1532 1531 1530 1528 1527 1526 1525 1524 1522 1521 1520 1519 1519 1518 1518 1517 1517 1517 1517 1517 1517 1517
1526 1530 1527 1526 1526 1526 1525 1528 1528 1528 1527 1525 1526 1524 1522 1524 1526 1528 1530 1531 1532 1532 1531 1530 1529 1528 1527 1526 1524 1523 1522 1520 1519 1518 1517 1516 1516 1515 1514 1514 1514 1514 1514 1514
1528 1529 1528 1528 1529 1528 1529 1528 1528 1528 1531 1529 1526 1529 1520 1521 1525 1527 1529 1530 1531 1531 1531 1530 1529 1528 1527 1525 1524 1522 1521 1519 1518 1517 1515 1514 1513 1512 1511 1511 1511 1511 1511 1511
1530 1531 1531 1531 1532 1531 1530 1529 1528 1527 1528 1529 1524 1527 1522 1520 1524 1526 1528 1530 1530 1531 1531 1530 1529 1528 1526 1525 1523 1521 1519 1518 1516 1514 1513 1512 1511 1510 1509 1509 1508 1508 1507 1507
1532 1533 1533 1533 1532 1531 1530 1528 1525 1525 1528 1533 1519 1523 1521 1522 1521 1524 1527 1529 1530 1530 1530 1529 1528 1527 1525 1523 1522 1520 1518 1516 1514 1513 1511 1510 1509 1507 1506 1505 1504 1504 1503 1503
1531 1533 1534 1534 1533 1532 1532 1534 1535 1532 1532 1526 1513 1517 1524 1521 1520 1522 1525 1527 1529 1529 1529 1528 1527 1525 1523 1522 1520 1518 1516 1514 1512 1511 1509 1508 1506 1505 1503 1502 1501 1500 1499 1499
1534 1536 1534 1534 1535 1536 1533 1534 1542 1541 1531 1521 1516 1520 1525 1523 1523 1524 1526 1527 1528 1528 1527 1526 1525 1524 1522 1520 1518 1516 1514 1512 1510 1508 1507 1505 1503 1502 1501 1499 1498 1497 1496 1495
1536 1536 1535 1535 1535 1536 1534 1535 1535 1540 1535 1532 1521 1519 1525 1524 1525 1525 1526 1527 1527 1526 1526 1525 1524 1522 1521 1519 1517 1515 1512 1510 1508 1506 1504 1502 1501 1499 1497 1496 1495 1493 1492 1491
1537 1540 1535 1535 1536 1536 1536 1536 1538 1540 1540 1533 1518 1515 1522 1526 1526 1526 1526 1526 1526 1526 1525 1523 1522 1521 1519 1517 1515 1513 1511 1508 1506 1504 1502 1499 1498 1496 1494 1492 1491 1489 1488 1487
1538 1542 1539 1536 1536 1535 1537 1538 1537 1537 1535 1538 1533 1527 1522 1522 1524 1525 1526 1525 1525 1524 1523 1522 1520 1519 1517 1515 1513 1510 1508 1506 1503 1501 1499 1496 1494 1492 1491 1489 1487 1485 1484 1483
1539 1541 1540 1534 1533 1533 1534 1534 1536 1543 1539 1534 1535 1533 1523 1523 1523 1524 1525 1525 1524 1523 1522 1520 1518 1516 1514 1512 1510 1507 1505 1503 1501 1498 1496 1493 1491 1489 1487 1485 1483 1481 1479 1478
1541 1543 1543 1535 1538 1538 1536 1535 1536 1538 1540 1539 1537 1532 1524 1523 1524 1524 1524 1523 1522 1521 1520 1518 1516 1514 1512 1509 1507 1505 1502 1500 1498 1495 1493 1490 1487 1485 1482 1480 1478 1476 1474 1472
1540 1542 1543 1539 1534 1535 1536 1535 1535 1539 1543 1537 1529 1525 1525 1524 1524 1523 1523 1522 1521 1519 1518 1515 1513 1511 1509 1507 1505 1502 1500 1498 1495 1492 1490 1487 1484 1481 1479 1476 1474 1472 1470 1468
1540 1541 1537 1535 1532 1532 1531 1531 1532 1535 1533 1534 1527 1524 1523 1523 1523 1522 1521 1520 1519 1517 1515 1513 1511 1509 1507 1504 1502 1499 1497 1494 1492 1489 1486 1484 1481 1478 1475 1472 1470 1467 1465 1463
1539 1540 1537 1535 1530 1529 1528 1526 1526 1527 1527 1526 1525 1524 1521 1521 1521 1520 1520 1519 1517 1515 1513 1511 1509 1507 1504 1501 1499 1496 1494 1491 1489 1486 1483 1480 1477 1474 1471 1468 1466 1463 1461 1458
1538 1540 1540 1535 1529 1529 1528 1520 1521 1522 1521 1523 1525 1523 1520 1520 1520 1519 1518 1517 1515 1513 1512 1509 1507 1504 1502 1499 1496 1493 1491 1488 1486 1483 1480 1477 1474 1471 1468 1465 1462 1459 1456 1454
1537 1538 1539 1537 1534 1536 1520 1517 1517 1519 1519 1519 1519 1519 1519 1519 1518 1517 1516 1515 1513 1512 1510 1507 1504 1501 1499 1496 1493 1491 1488 1485 1482 1479 1476 1474 1471 1468 1465 1462 1458 1455 1452 1450
1534 1537 1538 1537 1535 1524 1519 1518 1519 1521 1521 1518 1518 1518 1518 1517 1516 1515 1514 1513 1512 1510 1508 1505 1502 1499 1496 1493 1490 1487 1484 1482 1479 1476 1473 1470 1467 1464 1461 1458 1455 1452 1449 1446
1535 1536 1540 1536 1535 1527 1519 1520 1518 1521 1522 1517 1517 1517 1517 1516 1517 1515 1513 1511 1509 1507 1505 1502 1499 1496 1493 1490 1487 1484 1481 1478 1476 1473 1470 1467 1464 1461 1458 1455 1452 1449 1447 1443
1537 1538 1538 1535 1532 1522 1520 1518 1519 1525 1521 1518 1516 1516 1516 1516 1516 1514 1511 1509 1507 1505 1502 1499 1496 1493 1490 1487 1484 1481 1479 1476 1473 1470 1467 1464 1461 1458 1455 1452 1450 1447 1444 1441
1529 1532 1532 1530 1529 1524 1518 1518 1520 1520 1517 1516 1515 1515 1514 1513 1512 1510 1508 1506 1504 1501 1499 1496 1493 1490 1487 1485 1482 1478 1476 1473 1470 1467 1464 1461 1458 1455 1452 1449 1447 1444 1441 1438
1521 1522 1521 1521 1520 1515 1514 1515 1515 1515 1515 1514 1514 1513 1512 1511 1509 1508 1506 1504 1501 1499 1496 1493 1490 1487 1484 1482 1479 1476 1473 1470 1467 1464 1461 1458 1455 1452 1450 1447 1444 1441 1439 1437
1517 1516 1517 1516 1513 1513 1513 1513 1513 1513 1513 1512 1512 1511 1510 1508 1506 1505 1503 1501 1499 1496 1493 1491 1487 1484 1481 1479 1476 1474 1471 1468 1464 1461 1458 1455 1452 1449 1447 1445 1442 1440 1437 1435
1513 1515 1515 1514 1512 1511 1511 1511 1511 1510 1510 1510 1509 1509 1507 1506 1504 1502 1500 1498 1496 1494 1491 1488 1485 1482 1479 1477 1474 1471 1468 1465 1462 1459 1456 1453 1450 1447 1444 1442 1440 1438 1436 1435
1511 1513 1514 1512 1510 1510 1509 1509 1509 1508 1507 1507 1506 1505 1504 1503 1501 1500 1498 1496 1494 1491 1489 1486 1483 1480 1477 1474 1471 1469 1466 1463 1460 1456 1453 1450 1448 1445 1443 1440 1438 1436 1435 1432